Theta_e
344 344 342 341 341 343 344 343 343 343 343 342 341 342 342 344 345 344 344 347 348 347 347 347 348 348 347 346 347 347 347 346 345 346 347 347 347 346 345 347 347 347
342 343 343 343 343 344 344 344 344 343 343 343 343 342 343 343 343 344 344 344 346 347 348 347 347 347 347 345 345 345 343 344 344 344 343 344 346 344 344 346 344 348
342 342 341 340 338 340 340 342 344 343 341 342 343 343 342 343 343 344 344 343 343 344 346 347 345 345 345 345 346 344 343 343 343 343 343 342 343 343 345 345 346 343
343 343 341 340 340 340 341 341 342 343 342 341 341 341 342 343 343 343 343 343 343 344 344 347 347 346 345 345 345 343 343 343 343 344 342 341 343 342 340 341 344 346
343 342 342 342 341 343 343 342 341 341 341 341 341 342 342 343 343 342 342 342 344 345 343 343 344 344 344 344 344 342 341 340 341 342 340 340 340 341 339 338 337 337
343 343 343 342 342 342 341 340 340 340 340 340 341 341 340 342 342 342 342 342 340 339 340 340 342 342 343 343 343 343 342 340 340 341 339 338 338 339 340 341 341 337
342 342 342 341 342 342 341 340 341 341 340 341 343 342 342 341 341 342 343 343 342 342 342 343 342 343 344 343 342 341 341 341 341 340 339 339 338 337 338 338 338 339
341 341 340 340 340 340 340 340 340 339 340 342 340 341 342 341 342 343 343 343 343 342 343 344 344 343 342 343 342 341 341 340 339 339 339 338 337 337 337 337 338 336
342 340 339 340 339 338 336 336 336 338 339 339 338 338 340 341 340 342 343 345 344 344 344 344 342 341 342 342 342 342 341 340 339 338 337 336 335 336 337 337 336 335
341 340 339 337 333 335 335 335 334 336 337 337 337 337 337 340 341 343 343 344 343 344 345 344 341 340 339 340 340 341 340 338 337 337 336 335 334 334 335 335 335 334
340 339 337 336 335 332 333 332 331 332 334 335 336 336 337 338 339 341 342 343 342 343 343 344 342 340 340 340 341 342 340 337 336 335 334 332 333 335 331 335 334 333
339 338 336 335 334 333 333 334 334 335 334 333 333 332 334 334 336 338 341 342 343 342 344 345 344 343 342 341 341 341 339 337 335 334 330 331 332 333 333 334 332 332
337 337 336 334 335 335 336 333 332 332 331 331 332 332 331 333 335 338 341 344 344 344 343 343 343 342 341 342 342 341 338 337 335 334 331 331 332 331 332 333 332 331
337 336 336 337 336 337 337 336 335 335 335 335 335 333 330 332 333 336 337 338 339 340 341 342 345 344 343 342 343 340 337 336 336 334 332 332 331 331 331 331 331 329
337 337 337 337 337 336 335 335 335 335 334 335 334 334 334 334 336 334 335 336 338 340 342 342 344 345 343 341 338 337 338 336 335 333 332 331 331 331 331 330 328 326
337 338 338 337 336 335 335 335 333 333 332 332 332 332 334 335 336 337 335 334 335 339 341 342 343 345 338 332 332 335 335 335 335 334 332 331 332 331 328 326 325 324
337 337 337 336 336 335 335 334 333 332 332 332 333 335 335 336 335 334 334 335 336 337 338 338 340 343 332 327 327 327 333 335 335 334 334 333 332 329 327 325 324 324
337 337 336 335 335 335 335 334 333 332 332 333 333 333 333 334 333 334 335 337 338 337 336 336 337 334 326 326 327 326 328 335 335 334 334 333 331 328 327 325 325 325
338 337 336 335 335 335 335 334 333 331 331 331 331 332 333 333 333 333 335 337 336 335 334 334 334 332 324 324 325 324 324 328 335 336 334 333 332 329 328 326 325 324
337 337 336 335 335 335 335 334 331 330 331 331 332 333 333 332 333 333 333 335 334 333 334 335 334 331 324 323 322 321 321 324 335 336 335 333 332 329 328 327 326 325
337 337 336 336 336 335 334 333 331 331 331 331 331 331 331 331 331 332 333 333 332 331 331 331 332 326 323 321 320 317 317 320 335 336 334 332 332 331 330 328 326 326
338 337 337 337 336 336 333 331 331 331 331 332 333 331 331 330 330 330 330 330 331 331 330 331 331 325 322 320 317 315 316 332 336 335 335 333 332 331 331 330 330 328
338 337 338 337 337 334 332 330 330 330 330 333 332 331 328 327 329 328 331 330 330 331 332 333 333 327 317 315 315 314 317 334 336 335 335 335 332 331 331 331 331 330
338 339 338 337 337 334 332 330 329 331 330 333 331 330 328 328 329 329 331 331 330 331 330 330 329 325 312 311 312 314 319 334 335 334 334 334 333 332 332 332 331 328
338 339 338 337 336 333 332 331 330 331 331 332 332 331 330 331 330 329 329 330 328 329 333 331 331 326 315 312 310 313 323 336 336 335 332 333 334 331 333 333 332 331
339 339 339 338 336 335 334 333 333 332 331 330 330 329 328 328 328 329 328 328 328 329 330 331 331 331 327 311 312 312 313 331 333 332 331 331 333 331 329 331 332 333
Wind_Speed
1 2 3 3 4 3 4 4 5 5 5 5 5 5 6 6 7 7 7 6 6 6 6 5 5 5 5 6 6 7 6 7 6 7 8 9 8 11 12 12 13 11
2 2 3 3 3 3 3 4 5 6 6 5 5 5 6 6 7 7 7 7 6 6 6 5 5 5 5 5 5 6 7 7 8 7 9 10 9 10 13 14 14 13
3 3 4 4 4 5 5 5 5 5 6 6 6 5 6 6 6 7 7 7 6 5 5 5 6 6 5 5 5 6 7 7 8 8 9 10 10 10 11 12 12 14
3 3 4 4 4 5 5 5 6 6 6 6 6 6 5 6 6 7 7 7 6 6 6 6 6 6 6 6 5 6 7 7 8 8 9 9 10 11 12 11 11 11
4 4 4 4 4 5 5 5 6 6 6 6 6 6 6 6 7 7 7 7 6 6 6 6 6 6 6 6 7 7 7 7 8 8 9 10 10 10 9 9 12 13
4 4 4 4 5 5 5 5 5 6 6 6 6 6 6 6 7 7 7 8 7 7 8 7 7 7 6 7 7 7 7 7 7 8 9 10 10 10 9 10 10 10
5 4 5 5 5 5 6 5 5 5 5 5 6 6 6 7 7 7 8 7 8 8 7 7 7 7 6 6 6 7 7 8 8 8 9 9 10 12 11 11 12 12
5 5 5 5 6 6 6 6 5 5 5 5 6 6 6 7 7 7 7 7 8 8 7 7 7 7 6 6 6 7 8 6 7 8 9 11 11 12 12 11 11 12
5 5 5 6 6 6 7 6 7 5 4 6 7 7 6 7 7 8 8 7 8 8 7 7 6 7 6 6 6 7 8 8 8 9 9 10 12 13 13 13 15 14
6 5 6 7 7 6 7 7 7 6 5 5 6 7 8 7 8 8 8 7 8 8 8 7 7 6 6 6 7 7 8 9 9 9 9 11 12 13 14 14 16 16
6 6 6 6 7 7 7 7 7 7 7 8 7 8 8 8 8 8 8 8 7 8 8 8 8 7 7 7 6 6 7 8 9 8 9 11 12 13 14 15 16 17
6 6 7 7 7 6 7 7 7 8 8 8 7 8 8 8 8 7 7 9 8 8 8 9 8 8 8 7 7 7 7 8 8 8 10 11 12 13 15 15 16 17
6 6 6 6 6 6 6 7 8 9 9 9 9 10 10 9 9 9 9 8 9 8 9 9 9 9 8 7 6 7 7 7 7 9 10 10 11 13 14 15 15 16
6 6 6 6 6 6 7 7 8 8 8 8 9 10 10 10 10 9 9 8 9 8 8 9 9 8 8 7 6 6 7 7 7 9 10 11 12 12 13 14 15 16
6 6 6 6 6 7 7 7 7 8 8 9 9 9 9 10 10 10 9 9 8 8 8 8 8 7 6 5 5 6 6 7 7 8 10 10 11 12 13 14 13 13
6 6 6 6 7 7 7 8 8 8 8 9 10 10 9 9 9 9 10 9 9 8 8 7 6 6 2 3 4 5 6 6 7 8 9 10 10 11 13 14 14 11
6 6 6 7 7 6 7 8 8 7 8 9 9 9 9 9 9 9 9 9 9 8 7 7 6 5 7 7 7 6 6 7 8 8 9 9 9 11 13 14 13 13
6 6 7 7 7 7 7 7 7 8 8 9 8 9 8 8 9 9 9 8 7 8 8 7 8 1 10 8 8 6 6 6 7 8 8 8 8 12 12 12 12 13
6 7 7 7 7 7 7 6 6 8 8 8 8 8 8 8 9 9 8 8 8 9 8 8 9 2 10 8 8 7 7 7 7 8 8 8 9 10 11 11 11 12
7 7 7 8 7 7 7 6 7 7 7 7 7 7 7 8 8 9 8 8 8 9 8 8 9 1 9 8 8 8 7 8 8 9 8 8 9 11 10 10 10 12
8 8 8 8 7 7 7 7 7 7 7 6 6 7 7 7 8 8 8 8 8 9 9 9 7 2 9 9 9 8 8 8 8 8 7 7 7 9 11 11 11 11
8 8 7 7 7 7 7 7 7 7 7 6 6 6 6 7 7 7 8 9 9 9 9 9 8 5 9 9 8 8 7 7 7 8 8 8 8 9 10 10 9 9
7 7 7 7 7 7 7 7 7 7 7 6 6 7 7 7 7 7 7 8 9 9 9 8 9 3 9 9 9 7 6 7 8 8 8 8 9 8 10 10 9 9
7 8 8 8 7 8 7 7 7 6 6 6 6 7 7 7 7 7 7 8 9 9 8 9 10 5 9 8 9 8 7 7 8 8 9 9 8 7 7 8 9 13
7 8 8 8 8 8 7 7 7 6 6 5 6 6 7 6 6 7 8 8 9 10 5 6 8 6 7 9 9 7 6 6 8 8 9 8 7 8 7 7 7 8
7 7 8 8 8 8 7 7 6 7 7 6 6 7 6 6 7 8 9 9 9 9 9 7 7 8 1 7 4 6 7 6 7 7 8 8 7 8 9 9 9 8
Wind_Direction
287 289 292 295 300 300 298 298 300 298 295 300 301 314 312 318 318 312 315 311 308 302 298 293 294 296 297 291 287 291 285 283 271 256 256 269 263 266 269 263 264 259
266 271 277 285 282 274 278 279 287 290 292 289 293 299 305 308 311 312 313 313 306 302 302 302 304 296 296 302 301 296 292 286 285 290 283 273 264 253 259 265 266 263
264 270 279 288 298 308 307 305 292 289 290 295 295 293 300 306 306 306 305 308 309 307 301 299 302 300 300 299 300 298 299 299 297 296 290 287 282 279 264 262 263 263
257 271 286 291 293 300 305 304 303 299 295 288 293 304 304 303 303 302 304 302 299 299 302 297 300 302 301 303 303 301 304 301 300 298 296 289 283 279 283 281 269 262
260 271 275 284 292 291 293 295 306 311 308 305 299 298 297 298 301 305 304 303 298 293 300 303 301 304 306 308 312 307 306 302 304 307 304 298 294 295 297 284 284 285
249 253 262 270 275 276 283 293 301 308 309 306 303 302 300 299 297 302 307 306 305 308 308 311 311 309 310 311 306 307 308 308 311 309 304 302 302 299 290 289 284 269
247 245 256 266 262 262 270 279 287 293 297 303 304 298 299 302 299 299 299 296 302 304 306 311 310 310 308 304 302 301 305 305 307 307 307 306 306 304 299 295 290 284
246 252 262 266 265 264 267 270 275 281 291 293 295 299 297 301 303 302 297 295 292 295 295 300 303 304 301 301 298 302 305 309 310 309 308 308 309 304 304 299 292 288
243 251 258 261 265 268 269 276 278 287 295 296 301 306 304 300 300 299 297 289 285 282 286 288 296 301 302 299 301 302 306 312 312 310 309 310 308 306 303 302 299 296
243 251 263 271 272 274 275 283 292 287 285 287 297 301 305 301 295 293 290 287 283 281 276 278 284 290 296 297 302 306 307 307 308 309 309 308 307 306 304 302 299 296
246 253 260 262 270 278 288 291 303 317 318 309 302 299 300 296 291 289 284 281 281 282 281 277 282 288 285 291 298 304 304 306 307 308 307 307 304 302 302 301 301 300
247 257 264 270 276 282 287 301 302 290 287 290 303 303 303 297 294 289 287 281 276 277 275 274 275 276 279 284 295 302 305 305 305 307 307 308 308 305 305 308 308 306
253 256 264 273 275 278 287 291 294 302 307 310 308 306 304 303 305 301 294 286 281 277 276 277 275 274 273 275 281 294 301 299 301 307 309 309 309 305 306 310 313 313
253 258 261 265 274 283 285 288 294 294 291 291 294 296 299 305 305 302 297 292 289 285 284 281 276 269 266 265 275 288 298 299 303 309 312 312 311 306 309 317 318 317
253 258 258 264 271 278 288 295 296 294 290 288 290 292 296 298 301 305 303 295 289 285 283 282 278 272 265 265 277 292 296 301 304 308 311 312 311 310 317 321 320 314
248 251 255 264 272 281 292 295 293 293 295 294 293 293 294 295 301 300 297 296 294 293 290 286 281 272 216 163 260 288 298 297 301 302 305 311 312 315 319 323 322 310
244 247 253 261 271 284 294 294 289 292 295 296 294 293 295 296 291 295 298 301 300 298 297 292 289 273 156 201 216 234 267 286 297 297 304 308 310 318 320 319 314 310
242 247 253 263 272 288 291 288 288 293 298 298 297 295 294 298 299 298 297 297 295 293 295 300 296 211 170 202 226 226 243 279 293 295 299 302 307 318 319 316 310 309
241 247 257 265 274 289 289 286 287 294 297 296 295 298 298 295 297 295 297 297 295 295 296 302 309 146 186 205 225 232 227 249 282 290 292 296 302 310 313 309 305 307
241 250 258 266 274 281 282 280 286 291 297 299 295 293 294 297 300 303 302 299 299 297 295 295 302 233 194 203 222 228 236 243 278 285 284 290 295 304 301 299 298 304
243 248 258 265 269 271 272 277 282 286 297 299 303 305 303 305 307 305 304 298 298 299 300 304 301 183 194 207 222 230 228 242 270 276 283 287 293 293 292 294 299 299
242 250 255 258 258 260 267 276 280 291 297 298 294 299 303 301 302 308 311 311 307 305 304 300 304 175 200 206 221 228 241 260 272 288 296 298 301 298 294 291 289 288
244 253 253 253 255 257 264 274 283 288 291 294 293 295 301 305 310 312 316 311 311 306 300 301 305 251 193 208 217 211 226 268 282 292 292 295 301 303 300 295 289 289
246 248 248 249 250 254 260 268 272 281 286 286 290 297 298 308 309 308 310 315 308 300 307 315 309 287 184 201 217 214 245 275 289 292 295 296 294 287 291 288 283 276
243 244 244 244 246 250 255 266 274 280 283 281 282 286 288 287 299 307 312 308 309 315 300 275 297 304 171 197 207 218 230 272 287 298 302 300 295 294 290 291 280 284
233 237 238 243 245 247 255 263 265 271 279 285 286 285 295 312 312 311 312 309 311 310 315 313 305 302 338 165 184 210 228 271 288 289 294 304 302 297 304 298 301 299